Location: *
(51.1248°S, 108.4023°W)
Time: 18:54:27
(UTC+00:00)

Cosmos 1544 - Pass Details

Date: 25 October 2021
Orbit: 467 x 486 km, 82.5° (Epoch: 29 November)

Event Time Altitude Azimuth Distance (km) Brightness Sun altitude
Exits shadow 09:32:48 20° 251° (WSW) 1,158 4.7 -18.2°
Maximum altitude 09:32:57 20° 248° (WSW) 1,157 4.8 -18.2°
Drops below altitude 10° 09:35:46 10° 198° (SSW) 1,682 6.2 -17.9°
Sets 09:38:18 0° 180° (S) 2,575 7.5 -17.7°
